Regional Weather Roundup
Issued by NWS Cleveland, OH

Home | Current Version | Previous Version | Graphics & Text | Print | Product List | Glossary On
Versions: 1 2 3 4 5 6 7 8 9 10 11 12 13 14 15 16 17 18 19 20 21 22 23 24 25 26 27 28 29 30 31 32 33 34 35 36 37 38 39 40 41 42 43 44 45 46 47 48 49 50
000
ASUS41 KCLE 100400
RWRCLE
OHIO REGIONAL WEATHER ROUNDUP
NATIONAL WEATHER SERVICE WILMINGTON, OH
1100 PM EST FRI DEC 09 2016

NOTE: "FAIR" INDICATES FEW OR NO CLOUDS BELOW 12,000 FEET WITH NO
SIGNIFICANT WEATHER AND/OR OBSTRUCTIONS TO VISIBILITY.

OHZ001>008-015>018-024>027-034-035-043-044-100500-
   NORTHWEST OHIO

CITY           SKY/WX    TMP DP  RH WIND       PRES   REMARKS
DEFIANCE       CLOUDY    26  14  60 W8G16     30.48R WCI  18
FINDLAY        CLOUDY    25  16  68 W12       30.46S WCI  14
TOLEDO EXPRESS CLOUDY    25  19  78 W14       30.45R WCI  13
TOLEDO EXEC    CLOUDY    27  19  72 W12       30.45S WCI  17
LIMA           CLOUDY    23  16  74 W12       30.47S WCI  12
$$

OHZ009>014-019>023-028>033-038-089-100500-
   NORTHEAST OHIO

CITY           SKY/WX    TMP DP  RH WIND       PRES   REMARKS
CLE-HOPKINS    CLOUDY    27  20  75 W20       30.43S WCI  13
CLE-LAKEFRONT  LGT SNOW  28  22  78 SW20      30.40S WCI  15
CUY CO. ARPT   SNOW      27  27 100 W17       30.40R VSB 1/2 WCI  14
LORAIN-ELYRIA  CLOUDY    25  19  78 W12       30.43S WCI  14
ASHTABULA      LGT SNOW  25  23  92 SW12      30.37R FOG     WCI  14
AKRON-CANTON   CLOUDY    25  19  78 W12       30.40S WCI  14
WOOSTER        NOT AVBL
MANSFIELD      FLURRIES  23  18  81 SW9G18    30.42S WCI  13
YOUNGSTOWN     FLURRIES  25  19  78 W13       30.37R WCI  14
$$

OHZ042-051>053-060>062-070>072-077>081-100500-
  SOUTHWEST OHIO

CITY           SKY/WX    TMP DP  RH WIND       PRES   REMARKS
CINC-COVINGTON MOCLDY    22  14  71 CALM      30.51S
CINC-LUNKEN    FAIR      23  15  71 SW6       30.56S WCI  16
HAMILTON       FAIR      21  15  78 W3        30.54F
DAYTON         NOT AVBL
WRIGHT-PAT AFB NOT AVBL
DAYTON GENERAL CLOUDY    23  16  74 SW6       30.49F WCI  16
WILMINGTON     CLOUDY    22  16  78 W7        30.49F WCI  13
$$

OHZ036-037-039>041-045>050-054>059-063>069-073>076-082>088-100500-
  CENTRAL AND SOUTHEAST OHIO

CITY           SKY/WX    TMP DP  RH WIND       PRES   REMARKS
COLUMBUS       FLURRIES  25  18  74 W12       30.49F WCI  14
OSU AIRPORT    CLOUDY    24  18  77 W7        30.48F WCI  16
BOLTON FIELD   NOT AVBL
RICKENBACK AFB NOT AVBL
NEWARK         CLOUDY    26  17  68 W8        30.47F WCI  18
MARION         CLOUDY    24  18  77 W13       30.46S WCI  12
LANCASTER      LGT SNOW  23  19  85 SW8       30.50S FOG     WCI  14
ZANESVILLE     CLOUDY    25  19  78 SW7       30.48S WCI  17
NEW PHILLY     CLOUDY    25  20  81 W9        30.46R WCI  15
$$



USA.gov is the U.S. government's official web portal to all federal, state and local government web resources and services.